CW4352 Weather Reports


time (UTC)temp
C
wind
direction
speed
KPH
gust
KPH
rain 1hr
cm
rain 24hr
cm
rain mn
cm
humidity
%
barometer
mb
20260905024704 22 355 3.2 4.8 0.00 0.00 0.00 48 1011.1
20260905014704 21 355 1.6 4.8 0.00 0.00 0.00 51 1011.4
20260905013204 21 355 1.6 4.8 0.00 0.00 0.00 52 1011.6
20260905011704 21 355 1.6 3.2 0.00 0.00 0.00 53 1011.6
20260905004704 22 355 1.6 4.8 0.00 0.00 0.00 50 1011.6
20260905004204 22 355 3.2 4.8 0.00 0.00 0.00 51 1011.6
20260905003704 22 355 1.6 4.8 0.00 0.00 0.00 51 1011.6
20260905003204 22 355 1.6 4.8 0.00 0.00 0.00 50 1011.6
20260905000704 23 355 0.0 3.2 0.00 0.00 0.00 48 1011.6
20260904234704 24 355 0.0 1.6 0.00 0.00 0.00 44 1011.7
20260904231705 25 5 1.6 4.8 0.00 0.00 0.00 40 1011.7
20260904231203 25 5 1.6 8.0 0.00 0.00 0.00 41 1011.7
20260904224704 25 5 0.0 1.6 0.00 0.00 0.00 40 1011.9
20260904223204 25 5 3.2 8.0 0.00 0.00 0.00 42 1012.0
20260904221703 25 5 1.6 3.2 0.00 0.00 0.00 46 1012.3
20260904221204 25 5 0.0 1.6 0.00 0.00 0.00 45 1012.3
20260904220705 26 5 0.0 0.0 0.00 0.00 0.00 45 1012.3
20260904220204 26 5 0.0 4.8 0.00 0.00 0.00 43 1012.3
20260904213704 26 5 0.0 1.6 0.00 0.00 0.00 38 1012.3
20260904211704 26 5 0.0 3.2 0.00 0.00 0.00 35 1012.3
20260904204204 26 5 1.6 4.8 0.00 0.00 0.00 35 1012.4
20260904203704 27 5 3.2 4.8 0.00 0.00 0.00 33 1012.4
20260904203204 27 5 1.6 3.2 0.00 0.00 0.00 32 1012.4
20260904201704 28 5 1.6 3.2 0.00 0.00 0.00 28 1012.4
20260904200703 28 5 3.2 4.8 0.00 0.00 0.00 27 1012.4
20260904200204 28 5 3.2 4.8 0.00 0.00 0.00 26 1012.4
20260904194204 28 5 3.2 4.8 0.00 0.00 0.00 27 1012.3
20260904193704 28 9 1.6 4.8 0.00 0.00 0.00 29 1012.3
20260904193203 28 9 1.6 4.8 0.00 0.00 0.00 32 1012.3
20260904191703 28 9 1.6 4.8 0.00 0.00 0.00 35 1012.3
20260904191203 28 9 1.6 3.2 0.00 0.00 0.00 34 1012.0
20260904190703 28 9 1.6 3.2 0.00 0.00 0.00 35 1012.0
20260904184704 29 9 1.6 3.2 0.00 0.00 0.00 39 1012.0
20260904183703 30 9 0.0 3.2 0.00 0.00 0.00 39 1012.0
20260904181203 31 9 1.6 4.8 0.00 0.00 0.00 35 1011.6
20260904174705 32 9 1.6 3.2 0.00 0.00 0.00 32 1011.6
20260904174205 32 9 1.6 3.2 0.00 0.00 0.00 31 1011.6
20260904171705 33 9 0.0 3.2 0.00 0.00 0.00 29 1011.6
20260904170705 33 9 3.2 4.8 0.00 0.00 0.00 29 1011.6
20260904164706 33 9 1.6 4.8 0.00 0.00 0.00 27 1011.6
20260904164205 34 5 3.2 4.8 0.00 0.00 0.00 28 1011.9
20260904160206 34 5 3.2 8.0 0.00 0.00 0.00 27 1011.9
20260904154205 34 19 3.2 9.7 0.00 0.00 0.00 28 1012.0
20260904153205 34 334 3.2 12.9 0.00 0.00 0.00 28 1012.0
20260904151705 35 23 3.2 4.8 0.00 0.00 0.00 27 1011.9
20260904143705 35 343 4.8 12.9 0.00 0.00 0.00 28 1012.1
20260904141205 35 23 3.2 4.8 0.00 0.00 0.00 28 1012.5
20260904140706 35 24 3.2 11.3 0.00 0.00 0.00 28 1012.5
20260904134205 34 355 3.2 4.8 0.00 0.00 0.00 28 1012.5
20260904130706 34 17 3.2 9.7 0.00 0.00 0.00 28 1012.8
20260904124706 34 28 1.6 8.0 0.00 0.00 0.00 29 1013.3
20260904124205 34 28 3.2 4.8 0.00 0.00 0.00 29 1013.3
20260904123705 33 44 3.2 9.7 0.00 0.00 0.00 31 1013.3
20260904123206 33 38 3.2 8.0 0.00 0.00 0.00 30 1013.3
20260904121706 33 14 4.8 11.3 0.00 0.00 0.00 32 1013.3
20260904120705 33 26 3.2 8.0 0.00 0.00 0.00 31 1013.6
20260904114706 33 51 1.6 4.8 0.00 0.00 0.00 33 1013.6
20260904113205 32 21 3.2 9.7 0.00 0.00 0.00 33 1013.9
20260904110205 32 22 3.2 9.7 0.00 0.00 0.00 34 1014.2
20260904104705 32 358 3.2 4.8 0.00 0.00 0.00 34 1014.2
20260904104205 32 27 3.2 8.0 0.00 0.00 0.00 34 1014.2
20260904103205 32 13 3.2 4.8 0.00 0.00 0.00 35 1014.5
20260904101705 31 37 1.6 8.0 0.00 0.00 0.00 37 1014.5
20260904101205 31 27 1.6 8.0 0.00 0.00 0.00 37 1014.5
20260904100705 31 22 3.2 4.8 0.00 0.00 0.00 37 1014.5
20260904100205 31 19 1.6 11.3 0.00 0.00 0.00 37 1014.5
20260904094706 31 45 3.2 4.8 0.00 0.00 0.00 36 1014.5
20260904094205 31 38 3.2 4.8 0.00 0.00 0.00 37 1014.8
20260904093205 30 38 4.8 8.0 0.00 0.00 0.00 38 1014.8
20260904091705 30 5 3.2 4.8 0.00 0.00 0.00 39 1014.8
20260904091206 30 5 1.6 4.8 0.00 0.00 0.00 39 1014.8
20260904084706 30 11 1.6 4.8 0.00 0.00 0.00 39 1014.8
20260904083205 30 311 1.6 8.0 0.00 0.00 0.00 37 1014.8
20260904081705 30 263 1.6 4.8 0.00 0.00 0.00 38 1014.6
20260904080205 29 263 1.6 4.8 0.00 0.00 0.00 39 1014.6
20260904074205 28 263 1.6 4.8 0.00 0.00 0.00 42 1014.6
20260904071707 26 263 0.0 3.2 0.00 0.00 0.00 46 1014.3
20260904071205 26 263 0.0 3.2 0.00 0.00 0.00 46 1014.3
20260904070704 26 263 1.6 4.8 0.00 0.00 0.00 48 1014.3
20260904070205 26 263 0.0 8.0 0.00 0.00 0.00 48 1014.6
20260904064705 25 263 3.2 4.8 0.00 0.00 0.00 50 1014.6
20260904064204 25 263 3.2 8.0 0.00 0.00 0.00 50 1014.6
20260904063705 25 263 3.2 4.8 0.00 0.00 0.00 50 1014.6
20260904063205 24 263 4.8 9.7 0.00 0.00 0.00 50 1014.6
20260904061205 23 263 3.2 9.7 0.00 0.00 0.00 54 1014.6
20260904060705 22 263 3.2 8.0 0.00 0.00 0.00 57 1014.6
20260904053705 22 263 0.0 3.2 0.00 0.00 0.00 60 1014.2
20260904051705 22 263 4.8 8.0 0.00 0.00 0.00 59 1014.2
20260904051205 22 263 4.8 8.0 0.00 0.00 0.00 59 1014.2
20260904050205 22 263 6.4 9.7 0.00 0.00 0.00 58 1014.2
20260904044705 22 263 4.8 9.7 0.00 0.00 0.00 58 1014.2
20260904043205 22 263 4.8 8.0 0.00 0.00 0.00 59 1013.9
20260904041705 22 263 1.6 4.8 0.00 0.00 0.00 60 1013.9
20260904040705 22 263 1.6 1.6 0.00 0.00 0.00 58 1013.9
20260904040205 22 263 0.0 8.0 0.00 0.00 0.00 58 1013.9
20260904033705 22 263 4.8 9.7 0.00 0.00 0.00 59 1013.7
20260904031705 22 263 3.2 4.8 0.00 0.00 0.00 58 1013.7
20260904031205 23 263 1.6 3.2 0.00 0.00 0.00 58 1013.7
20260904030205 23 263 3.2 8.0 0.00 0.00 0.00 57 1013.7